This demonstration page uses our WeatherBlox Daily Observations layout. Learn more.

Left ArrowRight Arrow

44.8408, -93.29828

Hourly Observations for March 12, 2020

Temp ( °F °C ) Dew Point ( °F °C ) Humidity (%) Winds ( mph kmh ) Pressure ( in mb ) Visibility ( mi km ) Precip ( " mm )
12:53 am 00:53 Cloudy 40 4.4 34 1.1 79 79 SE 8 13 29.75 1007 10 16 0.00 0.00
1:53 am 01:53 Cloudy 40 4.4 34 1.1 79 79 SE 8 13 29.72 1006 10 16 0.00 0.00
2:53 am 02:53 Cloudy 40 4.4 34 1.1 79 79 SE 5 7 29.70 1006 10 16 0.00 0.00
3:53 am 03:53 Cloudy 40 4.4 34 1.1 79 79 ESE 6 9 29.65 1004 10 16 0.00 0.00
4:53 am 04:53 Cloudy 40 4.4 35 1.7 83 83 ESE 7 11 29.62 1003 10 16 0.00 0.00
5:53 am 05:53 Cloudy with Light Rain 41 5 36 2.2 82 82 ESE 9 15 29.61 1003 7 11 0.00 0.00
6:53 am 06:53 Cloudy with Light Rain 41 5 37 2.8 86 86 ESE 10 17 29.58 1002 7 11 0.00 0.00
7:53 am 07:53 Cloudy 42 5.6 37 2.8 82 82 E 12 19 29.57 1001 7 11 0.00 0.00
8:39 am 08:39 Cloudy 42 5.6 37 2.8 82 82 ENE 7 11 29.58 1002 8 13 0.00 0.00
8:53 am 08:53 Cloudy 42 5.6 38 3.3 85 85 ENE 7 11 29.56 1001 8 13 0.00 0.00
9:02 am 09:02 Cloudy 42 5.6 38 3.3 85 85 ENE 7 11 29.57 1001 8 13 0.00 0.00
9:53 am 09:53 Cloudy 42 5.6 38 3.3 85 85 ENE 6 9 29.54 1000 7 11 0.00 0.00
10:35 am 10:35 Cloudy with Drizzle 42 5.6 38 3.3 85 85 NNW 10 17 29.57 1001 5 8 0.00 0.00
10:53 am 10:53 Cloudy with Drizzle 42 5.6 39 3.9 89 89 NNW 10 17 29.57 1001 3 5 0.00 0.00
11:04 am 11:04 Cloudy with Light Rain 41 5 38 3.3 89 89 NNW 10 17 29.60 1002 2 3 0.00 0.00
11:15 am 11:15 Cloudy with Light Rain 41 5 38 3.3 89 89 N 12 19 29.59 1002 2 3 0.01 0.25
11:34 am 11:34 Cloudy with Light Rain 40 4.4 38 3.3 93 93 NNW 9 15 29.61 1003 4 6 0.01 0.25
11:53 am 11:53 Cloudy with Light Rain 40 4.4 38 3.3 93 93 NW 14 22 29.62 1003 4 6 0.02 0.51
12:31 pm 12:31 Cloudy with Light Rain 40 4.4 37 2.8 89 89 NNW 13 20 29.64 1004 5 8 0.03 0.76
12:53 pm 12:53 Cloudy with Light Rain 40 4.4 37 2.8 89 89 NNW 9 15 29.63 1003 7 11 0.04 1.02
1:02 pm 13:02 Cloudy with Light Rain 40 4.4 37 2.8 89 89 NNW 10 17 29.64 1004 7 11 0.00 0.00
1:22 pm 13:22 Cloudy with Light Rain 40 4.4 38 3.3 93 93 NW 14 22 29.65 1004 7 11 0.02 0.51
1:53 pm 13:53 Cloudy with Light Rain 41 5 38 3.3 89 89 NW 16 26 29.64 1004 9 14 0.03 0.76
2:06 pm 14:06 Cloudy 41 5 38 3.3 89 89 WNW 16 26 29.67 1005 9 14 0.00 0.00
2:28 pm 14:28 Cloudy 42 5.6 38 3.3 85 85 NW 12 19 29.66 1004 10 16 0.00 0.00
2:53 pm 14:53 Cloudy 42 5.6 37 2.8 82 82 NW 14 22 29.66 1004 10 16 0.00 0.00
3:12 pm 15:12 Cloudy 42 5.6 37 2.8 82 82 NW 18 30 29.68 1005 10 16 0.00 0.00
3:42 pm 15:42 Cloudy 42 5.6 37 2.8 82 82 NW 16 26 29.70 1006 10 16 0.00 0.00
3:53 pm 15:53 Cloudy 42 5.6 36 2.2 79 79 NNW 23 37 29.68 1005 10 16 0.00 0.00
4:53 pm 16:53 Cloudy 42 5.6 33 0.6 71 71 NW 20 31 29.74 1007 10 16 0.00 0.00
5:06 pm 17:06 Cloudy 42 5.6 32 0 68 68 NW 24 39 29.76 1008 10 16 0.00 0.00
5:27 pm 17:27 Cloudy 42 5.6 31 -0.6 65 65 WNW 15 24 29.77 1008 10 16 0.00 0.00
5:53 pm 17:53 Mostly Cloudy 41 5 29 -1.7 62 62 NW 23 37 29.78 1008 10 16 0.00 0.00
6:53 pm 18:53 Mostly Cloudy 39 3.9 24 -4.4 55 55 NW 22 35 29.81 1010 10 16 0.00 0.00
7:53 pm 19:53 Partly Cloudy 38 3.3 22 -5.6 52 52 WNW 21 33 29.84 1011 10 16 0.00 0.00
8:53 pm 20:53 Mostly Cloudy 36 2.2 23 -5 59 59 WNW 15 24 29.88 1012 10 16 0.00 0.00
9:53 pm 21:53 Mostly Cloudy 36 2.2 23 -5 59 59 WNW 20 31 29.91 1013 10 16 0.00 0.00
10:53 pm 22:53 Mostly Cloudy 34 1.1 21 -6.1 59 59 WNW 21 33 29.93 1014 10 16 0.00 0.00
11:53 pm 23:53 Partly Cloudy with Isolated Snow Showers 33 0.6 16 -8.9 49 49 WNW 23 37 29.95 1014 10 16 0.00 0.00

Powered by AerisWeather